This is the latest recevied weather packets stored in our database for station/object DH6PF-10. If no packets are shown the sender has not sent any weather packets the latest 10 day(s).
| Time | Temp. | Humidity | Pressure | Rain* | Wind** | Luminosity | Snow |
|---|---|---|---|---|---|---|---|
| 1787734310 | 19.44° C | 79% | 1019 hPa | - | - | - | - |
| 1787733710 | 18.33° C | 83% | 1018.7 hPa | - | - | - | - |
| 1787733110 | 17.78° C | 84% | 1018.8 hPa | - | - | - | - |
| 1787732510 | 17.78° C | 83% | 1018.8 hPa | - | - | - | - |
| 1787731910 | 18.33° C | 82% | 1018.7 hPa | - | - | - | - |
| 1787731310 | 17.78° C | 86% | 1018.9 hPa | - | - | - | - |
| 1787730710 | 17.22° C | 86% | 1018.8 hPa | - | - | - | - |
| 1787730110 | 17.22° C | 86% | 1018.6 hPa | - | - | - | - |
| 1787729510 | 17.22° C | 87% | 1018.6 hPa | - | - | - | - |
| 1787728910 | 16.67° C | 88% | 1018.6 hPa | - | - | - | - |
| 1787728310 | 16.67° C | 89% | 1018.3 hPa | - | - | - | - |
| 1787727710 | 16.11° C | 89% | 1018.5 hPa | - | - | - | - |
| 1787727110 | 16.11° C | 90% | 1018.6 hPa | - | - | - | - |
| 1787726510 | 16.11° C | 91% | 1018.5 hPa | - | - | - | - |
| 1787725910 | 16.11° C | 91% | 1018.3 hPa | - | - | - | - |
| 1787725310 | 15.56° C | 91% | 1018.4 hPa | - | - | - | - |
| 1787724710 | 15.56° C | 91% | 1018.4 hPa | - | - | - | - |
| 1787724110 | 15.56° C | 92% | 1018.3 hPa | - | - | - | - |
| 1787723510 | 15.56° C | 92% | 1018.6 hPa | - | - | - | - |
| 1787722910 | 15.56° C | 92% | 1018.4 hPa | - | - | - | - |
| 1787722310 | 15.56° C | 93% | 1018.2 hPa | - | - | - | - |
| 1787721710 | 15° C | 93% | 1018.3 hPa | - | - | - | - |
| 1787721110 | 15° C | 94% | 1018.1 hPa | - | - | - | - |
| 1787720510 | 14.44° C | 96% | 1018.2 hPa | - | - | - | - |
| 1787719910 | 14.44° C | 97% | 1018.5 hPa | - | - | - | - |
* Rain since midnight (hover to see other rain measurements)
** Current wind speed in m/s (hover to see current wind gust speed)